Kezdőlap
METAR-TAF:

METAR-TAF

Repülőterek :

Boone Municipal Airport

Boone, Iowa, Amerikai Egyesült Államok

földrajzi szélesség: 42-03N, földrajzi hosszúság: 093-51W, magasság: 354 m

Jelenlegi meteorológiai megfigyelések

A jelentés 22 perccel ezelõtt készült, 11:35 UTC
Kelet-északkeleti szél 6 kt
Hőmérséklet 11°C
Páratartalom 71%
Légköri nyomás 1016 hPa
Látótávolság: 16.1 km
Derült ég

METAR: KBNW 171135Z AUTO 07006KT 10SM CLR 11/06 A3000 RMK AO2

Idő: 06:57 (11:57 UTC)


TAF: hiányzik

Meteorológiai megfigyelések és előrejelzések több, mint 4000 repülőtéren (METAR és TAF jelentéseket).

A térképen piros és sárga pontok jelzik az elérhető meteorológiai állomásokat.

Mozgassa az egeret a pont fölött, hogy megjelenjen az állomás neve.

Azután kattintson az időjárási megfigyelések és előrejelzések megtekintéséhez.

A térkép megváltoztatása: kattintson a fekete keresztel jelölt zöld gombra ráközelítéshez, a vonallal jelölt zöld gombra távolításhoz, vagy a zöld nyilakra a szomszédos térképek eléréséhez.


METAR-TAF: